PVI397 EIDL-LFRQ

Flight info

Callsign PVI397
Flight time 1h 15m
Altitude 35000
Route DCT TADEX DCT PELIG DCT IJALA DCT DOLUR DCT
Aircraft A321/M-SDE3FGHIRWY/LB1

Departure

Time 2026-05-06 10:15
Airport Donegal Airport (EIDL)

Arrival

Time 2026-05-06 11:30
Airport Quimper-Cornouaille Airport (LFRQ)
Time Latitude Longitude Altitude Speed Heading
2026-05-06 09:18 55.03851 -8.34192 39 ft 0 kts 199°
2026-05-06 10:01 55.03854 -8.34191 39 ft 1 kts 199°
2026-05-06 10:01 55.03870 -8.34181 39 ft 3 kts 199°
2026-05-06 10:01 55.03881 -8.34175 39 ft 1 kts 199°
2026-05-06 10:08 55.03880 -8.34175 39 ft 1 kts 199°
2026-05-06 10:08 55.03868 -8.34194 37 ft 4 kts 237°
2026-05-06 10:09 55.03863 -8.34257 39 ft 7 kts 273°
2026-05-06 10:09 55.03869 -8.34310 39 ft 0 kts 285°
2026-05-06 10:09 55.03872 -8.34328 39 ft 3 kts 285°
2026-05-06 10:10 55.03882 -8.34375 37 ft 5 kts 294°
2026-05-06 10:10 55.03921 -8.34415 40 ft 9 kts
2026-05-06 10:10 55.03992 -8.34377 43 ft 13 kts 20°
2026-05-06 10:10 55.04083 -8.34318 42 ft 15 kts 20°
2026-05-06 10:11 55.04189 -8.34249 43 ft 17 kts 20°
2026-05-06 10:11 55.04307 -8.34172 38 ft 19 kts 20°
2026-05-06 10:11 55.04435 -8.34092 39 ft 20 kts 20°
2026-05-06 10:11 55.04574 -8.34001 42 ft 22 kts 20°
2026-05-06 10:12 55.04724 -8.33902 41 ft 23 kts 21°
2026-05-06 10:12 55.04880 -8.33798 39 ft 24 kts 21°
2026-05-06 10:12 55.04994 -8.33714 37 ft 11 kts 26°
2026-05-06 10:12 55.05019 -8.33713 37 ft 2 kts 285°
2026-05-06 10:13 55.05002 -8.33729 37 ft 4 kts 191°
2026-05-06 10:13 55.04980 -8.33737 37 ft 0 kts 195°
2026-05-06 10:14 55.04933 -8.33763 37 ft 38 kts 200°
2026-05-06 10:14 55.04392 -8.34122 41 ft 126 kts 201°
2026-05-06 10:14 55.03510 -8.34696 593 ft 137 kts 201°
2026-05-06 10:15 55.02596 -8.35296 1386 ft 141 kts 202°
2026-05-06 10:15 55.01730 -8.35953 2104 ft 132 kts 200°
2026-05-06 10:15 55.00826 -8.36290 2607 ft 135 kts 181°
2026-05-06 10:15 54.99882 -8.35882 2910 ft 150 kts 145°
2026-05-06 10:16 54.98974 -8.34825 3244 ft 164 kts 150°
2026-05-06 10:16 54.97907 -8.33881 3619 ft 182 kts 153°
2026-05-06 10:16 54.96712 -8.32855 4089 ft 200 kts 153°
2026-05-06 10:16 54.95421 -8.31749 4690 ft 213 kts 153°
2026-05-06 10:17 54.94039 -8.30564 5249 ft 232 kts 153°
2026-05-06 10:17 54.92505 -8.29250 5648 ft 258 kts 153°
2026-05-06 10:17 54.90837 -8.27823 6114 ft 272 kts 153°
2026-05-06 10:17 54.89121 -8.26354 6907 ft 277 kts 153°
2026-05-06 10:18 54.87385 -8.24869 7776 ft 280 kts 154°
2026-05-06 10:18 54.85619 -8.23417 8689 ft 282 kts 158°
2026-05-06 10:18 54.83758 -8.22271 9595 ft 285 kts 163°
2026-05-06 10:18 54.81850 -8.21200 10347 ft 295 kts 163°
2026-05-06 10:19 54.79822 -8.20072 10719 ft 317 kts 163°
2026-05-06 10:19 54.77669 -8.18871 11233 ft 331 kts 163°
2026-05-06 10:19 54.75458 -8.17629 11996 ft 337 kts 164°
2026-05-06 10:19 54.73215 -8.16367 12805 ft 341 kts 164°
2026-05-06 10:20 54.70945 -8.15089 13612 ft 345 kts 164°
2026-05-06 10:20 54.68648 -8.13798 14339 ft 350 kts 165°
2026-05-06 10:20 54.66350 -8.12508 15022 ft 354 kts 165°
2026-05-06 10:20 54.63991 -8.11185 15716 ft 358 kts 165°
2026-05-06 10:21 54.61604 -8.09848 16404 ft 363 kts 165°
2026-05-06 10:21 54.59189 -8.08497 17100 ft 367 kts 165°
2026-05-06 10:21 54.56744 -8.07128 17795 ft 372 kts 165°
2026-05-06 10:21 54.54267 -8.05749 18453 ft 376 kts 165°
2026-05-06 10:22 54.51767 -8.04355 19031 ft 380 kts 165°
2026-05-06 10:22 54.49242 -8.02951 19602 ft 383 kts 165°
2026-05-06 10:22 54.46694 -8.01531 20159 ft 387 kts 165°
2026-05-06 10:22 54.44118 -8.00101 20724 ft 390 kts 165°
2026-05-06 10:23 54.41524 -7.98661 21290 ft 394 kts 165°
2026-05-06 10:23 54.38904 -7.97212 21837 ft 397 kts 165°
2026-05-06 10:23 54.36261 -7.95748 22392 ft 401 kts 165°
2026-05-06 10:23 54.33595 -7.94273 22938 ft 405 kts 165°
2026-05-06 10:24 54.30906 -7.92789 23479 ft 408 kts 165°
2026-05-06 10:24 54.28185 -7.91290 23944 ft 411 kts 165°
2026-05-06 10:24 54.25451 -7.89790 24384 ft 415 kts 165°
2026-05-06 10:24 54.22691 -7.88279 24820 ft 418 kts 165°
2026-05-06 10:25 54.19914 -7.86763 25282 ft 420 kts 165°
2026-05-06 10:25 54.17118 -7.85235 25718 ft 423 kts 165°
2026-05-06 10:25 54.14299 -7.83693 26138 ft 427 kts 164°
2026-05-06 10:25 54.11463 -7.82142 26543 ft 429 kts 164°
2026-05-06 10:26 54.08611 -7.80590 26935 ft 432 kts 164°
2026-05-06 10:26 54.05730 -7.79023 27319 ft 435 kts 164°
2026-05-06 10:26 54.02835 -7.77448 27701 ft 438 kts 164°
2026-05-06 10:26 53.99918 -7.75864 28068 ft 441 kts 164°
2026-05-06 10:27 53.96983 -7.74271 28439 ft 444 kts 164°
2026-05-06 10:27 53.94033 -7.72675 28807 ft 446 kts 164°
2026-05-06 10:27 53.91066 -7.71068 29166 ft 449 kts 164°
2026-05-06 10:27 53.88079 -7.69456 29512 ft 452 kts 164°
2026-05-06 10:28 53.85074 -7.67835 29851 ft 455 kts 164°
2026-05-06 10:28 53.82044 -7.66206 30174 ft 458 kts 163°
2026-05-06 10:28 53.79002 -7.64569 30464 ft 460 kts 163°
2026-05-06 10:28 53.75950 -7.62931 30765 ft 462 kts 163°
2026-05-06 10:29 53.72894 -7.61292 31158 ft 460 kts 164°
2026-05-06 10:29 53.69846 -7.59666 31599 ft 458 kts 164°
2026-05-06 10:29 53.66851 -7.58061 32005 ft 457 kts 163°
2026-05-06 10:29 53.63825 -7.56446 32368 ft 456 kts 164°
2026-05-06 10:30 53.60798 -7.54835 32736 ft 455 kts 164°
2026-05-06 10:30 53.57778 -7.53239 33090 ft 455 kts 164°
2026-05-06 10:30 53.54766 -7.51645 33440 ft 454 kts 164°
2026-05-06 10:30 53.51754 -7.50051 33777 ft 453 kts 164°
2026-05-06 10:31 53.48751 -7.48462 34111 ft 451 kts 164°
2026-05-06 10:31 53.45757 -7.46878 34395 ft 450 kts 164°
2026-05-06 10:31 53.42767 -7.45301 34616 ft 450 kts 164°
2026-05-06 10:31 53.39779 -7.43729 34842 ft 450 kts 164°
2026-05-06 10:32 53.36785 -7.42151 35036 ft 451 kts 164°
2026-05-06 10:32 53.33792 -7.40577 35072 ft 451 kts 164°
2026-05-06 10:32 53.27814 -7.37442 35051 ft 450 kts 164°
2026-05-06 10:33 53.21837 -7.34328 35045 ft 450 kts 164°
2026-05-06 10:33 53.15851 -7.31283 35046 ft 450 kts 165°
2026-05-06 10:34 53.09846 -7.28370 35043 ft 449 kts 165°
2026-05-06 10:34 53.03846 -7.25450 35045 ft 450 kts 165°
2026-05-06 10:35 52.97859 -7.22524 35042 ft 448 kts 166°
2026-05-06 10:35 52.91877 -7.19614 35045 ft 448 kts 166°
2026-05-06 10:36 52.85893 -7.16720 35041 ft 448 kts 166°
2026-05-06 10:36 52.79913 -7.13823 35042 ft 448 kts 166°
2026-05-06 10:37 52.73939 -7.10944 35045 ft 447 kts 166°
2026-05-06 10:37 52.67968 -7.08074 35047 ft 447 kts 166°
2026-05-06 10:38 52.62001 -7.05217 35042 ft 447 kts 166°
2026-05-06 10:38 52.56070 -7.02378 35041 ft 447 kts 166°
2026-05-06 10:39 52.50106 -6.99528 35041 ft 446 kts 166°
2026-05-06 10:39 52.44150 -6.96706 35051 ft 445 kts 166°
2026-05-06 10:40 52.38207 -6.93877 35049 ft 445 kts 167°
2026-05-06 10:40 52.32260 -6.91078 35049 ft 445 kts 166°
2026-05-06 10:41 52.26316 -6.88275 35048 ft 444 kts 167°
2026-05-06 10:41 52.20377 -6.85479 35049 ft 444 kts 167°
2026-05-06 10:42 52.14437 -6.82687 35047 ft 444 kts 167°
2026-05-06 10:42 52.08499 -6.79907 35040 ft 444 kts 167°
2026-05-06 10:43 52.02558 -6.77139 35048 ft 444 kts 167°
2026-05-06 10:44 51.93649 -6.73003 35048 ft 444 kts 167°
2026-05-06 10:44 51.87707 -6.70243 35048 ft 444 kts 167°
2026-05-06 10:45 51.81767 -6.67500 35043 ft 444 kts 166°
2026-05-06 10:45 51.75827 -6.64771 35050 ft 444 kts 167°
2026-05-06 10:46 51.69888 -6.62047 35050 ft 444 kts 167°
2026-05-06 10:46 51.63945 -6.59327 35047 ft 444 kts 167°
2026-05-06 10:47 51.58005 -6.56614 35046 ft 443 kts 166°
2026-05-06 10:47 51.52074 -6.53918 35050 ft 443 kts 166°
2026-05-06 10:48 51.46135 -6.51218 35047 ft 443 kts 166°
2026-05-06 10:48 51.40195 -6.48532 35048 ft 443 kts 166°
2026-05-06 10:49 51.34304 -6.45874 35043 ft 442 kts 167°
2026-05-06 10:49 51.28401 -6.43103 35041 ft 443 kts 161°
2026-05-06 10:50 51.22809 -6.38863 35045 ft 445 kts 155°
2026-05-06 10:50 51.17271 -6.34415 35043 ft 445 kts 155°
2026-05-06 10:51 51.12633 -6.30737 35041 ft 444 kts 155°
2026-05-06 10:51 51.07104 -6.26369 35041 ft 444 kts 156°
2026-05-06 10:52 51.01573 -6.22015 35036 ft 444 kts 156°
2026-05-06 10:52 50.96079 -6.17690 35045 ft 444 kts 156°
2026-05-06 10:53 50.90550 -6.13352 35037 ft 443 kts 156°
2026-05-06 10:53 50.84982 -6.08997 35039 ft 443 kts 156°
2026-05-06 10:54 50.79496 -6.04711 35038 ft 443 kts 156°
2026-05-06 10:54 50.73964 -6.00409 35038 ft 443 kts 156°
2026-05-06 10:55 50.68437 -5.96125 35030 ft 443 kts 156°
2026-05-06 10:55 50.62906 -5.91849 35019 ft 443 kts 156°
2026-05-06 10:56 50.57378 -5.87576 35018 ft 442 kts 156°
2026-05-06 10:56 50.51851 -5.83319 35025 ft 442 kts 156°
2026-05-06 10:57 50.46318 -5.79079 35025 ft 442 kts 156°
2026-05-06 10:57 50.40789 -5.74849 35020 ft 442 kts 156°
2026-05-06 10:58 50.35258 -5.70622 35019 ft 442 kts 156°
2026-05-06 10:58 50.29724 -5.66441 35019 ft 442 kts 156°
2026-05-06 10:59 50.24191 -5.62240 35000 ft 442 kts 155°
2026-05-06 10:59 50.18661 -5.58036 35001 ft 442 kts 155°
2026-05-06 11:00 50.13125 -5.53851 35000 ft 442 kts 156°
2026-05-06 11:00 50.07594 -5.49681 34995 ft 442 kts 156°
2026-05-06 11:01 50.02057 -5.45512 34996 ft 442 kts 155°
2026-05-06 11:01 49.96549 -5.41388 34995 ft 437 kts 155°
2026-05-06 11:02 49.91162 -5.37356 34987 ft 437 kts 155°
2026-05-06 11:02 49.85568 -5.33182 34993 ft 443 kts 155°
2026-05-06 11:03 49.80054 -5.29086 34659 ft 437 kts 155°
2026-05-06 11:03 49.77322 -5.27059 34263 ft 434 kts 155°
2026-05-06 11:03 49.74636 -5.25064 33758 ft 432 kts 155°
2026-05-06 11:03 49.71940 -5.23068 33245 ft 429 kts 155°
2026-05-06 11:04 49.69257 -5.21085 32753 ft 425 kts 155°
2026-05-06 11:04 49.66561 -5.19090 32260 ft 422 kts 155°
2026-05-06 11:04 49.63959 -5.17165 31775 ft 419 kts 155°
2026-05-06 11:04 49.61335 -5.15228 31278 ft 417 kts 155°
2026-05-06 11:05 49.58724 -5.13304 30802 ft 415 kts 155°
2026-05-06 11:05 49.56130 -5.11398 30344 ft 412 kts 155°
2026-05-06 11:05 49.53547 -5.09502 29859 ft 410 kts 155°
2026-05-06 11:05 49.50979 -5.07617 29300 ft 408 kts 155°
2026-05-06 11:06 49.48427 -5.05725 28809 ft 406 kts 154°
2026-05-06 11:06 49.45935 -5.03719 28334 ft 402 kts 153°
2026-05-06 11:06 49.43475 -5.01702 27860 ft 399 kts 153°
2026-05-06 11:06 49.41034 -4.99696 27417 ft 396 kts 153°
2026-05-06 11:07 49.38612 -4.97712 26952 ft 394 kts 153°
2026-05-06 11:07 49.36201 -4.95744 26467 ft 392 kts 153°
2026-05-06 11:07 49.33796 -4.93782 26008 ft 390 kts 153°
2026-05-06 11:07 49.31406 -4.91831 25553 ft 387 kts 153°
2026-05-06 11:08 49.29031 -4.89896 25128 ft 385 kts 153°
2026-05-06 11:08 49.26670 -4.87977 24679 ft 383 kts 153°
2026-05-06 11:08 49.24316 -4.86069 24222 ft 382 kts 153°
2026-05-06 11:08 49.21971 -4.84166 23772 ft 381 kts 153°
2026-05-06 11:09 49.19634 -4.82269 23273 ft 380 kts 153°
2026-05-06 11:09 49.17306 -4.80381 22764 ft 378 kts 153°
2026-05-06 11:09 49.14989 -4.78508 22302 ft 375 kts 153°
2026-05-06 11:09 49.12684 -4.76647 21837 ft 373 kts 153°
2026-05-06 11:10 49.10393 -4.74799 21356 ft 371 kts 154°
2026-05-06 11:10 49.08116 -4.72965 20907 ft 369 kts 154°
2026-05-06 11:10 49.05855 -4.71145 20482 ft 366 kts 154°
2026-05-06 11:10 49.03615 -4.69343 20068 ft 363 kts 154°
2026-05-06 11:11 49.01391 -4.67554 19657 ft 361 kts 154°
2026-05-06 11:11 48.99175 -4.65773 19246 ft 359 kts 154°
2026-05-06 11:11 48.96972 -4.64006 18844 ft 358 kts 154°
2026-05-06 11:11 48.94772 -4.62244 18455 ft 356 kts 154°
2026-05-06 11:12 48.92579 -4.60489 18054 ft 356 kts 154°
2026-05-06 11:12 48.90392 -4.58742 17631 ft 354 kts 154°
2026-05-06 11:12 48.88215 -4.57005 17216 ft 353 kts 154°
2026-05-06 11:12 48.86048 -4.55274 16834 ft 351 kts 154°
2026-05-06 11:13 48.83892 -4.53555 16467 ft 348 kts 154°
2026-05-06 11:13 48.81782 -4.51872 16104 ft 346 kts 154°
2026-05-06 11:13 48.79661 -4.50185 15749 ft 343 kts 154°
2026-05-06 11:13 48.77555 -4.48510 15397 ft 341 kts 154°
2026-05-06 11:14 48.75459 -4.46849 15048 ft 338 kts 154°
2026-05-06 11:14 48.73386 -4.45203 14706 ft 335 kts 154°
2026-05-06 11:14 48.71325 -4.43567 14356 ft 333 kts 154°
2026-05-06 11:14 48.69278 -4.41945 14009 ft 331 kts 153°
2026-05-06 11:15 48.67245 -4.40336 13644 ft 329 kts 154°
2026-05-06 11:15 48.65221 -4.38739 13278 ft 327 kts 153°
2026-05-06 11:15 48.63208 -4.37148 12921 ft 325 kts 154°
2026-05-06 11:15 48.61217 -4.35574 12596 ft 321 kts 154°
2026-05-06 11:16 48.59258 -4.34028 12340 ft 312 kts 153°
2026-05-06 11:16 48.57369 -4.32540 12154 ft 300 kts 154°
2026-05-06 11:16 48.55555 -4.31112 11983 ft 288 kts 154°
2026-05-06 11:16 48.53816 -4.29744 11852 ft 275 kts 154°
2026-05-06 11:17 48.52153 -4.28436 11680 ft 264 kts 153°
2026-05-06 11:17 48.50533 -4.27165 11364 ft 261 kts 153°
2026-05-06 11:17 48.48931 -4.25910 11024 ft 259 kts 153°
2026-05-06 11:17 48.47331 -4.24658 10709 ft 259 kts 153°
2026-05-06 11:18 48.45734 -4.23408 10388 ft 258 kts 153°
2026-05-06 11:18 48.44144 -4.22162 10039 ft 257 kts 153°
2026-05-06 11:18 48.42557 -4.20919 9668 ft 257 kts 153°
2026-05-06 11:18 48.40979 -4.19685 9341 ft 255 kts 153°
2026-05-06 11:19 48.39413 -4.18460 9024 ft 252 kts 153°
2026-05-06 11:19 48.37859 -4.17249 8729 ft 251 kts 153°
2026-05-06 11:19 48.36317 -4.16048 8434 ft 249 kts 153°
2026-05-06 11:19 48.34782 -4.14855 8126 ft 248 kts 153°
2026-05-06 11:20 48.33257 -4.13665 7841 ft 246 kts 152°
2026-05-06 11:20 48.31746 -4.12487 7544 ft 243 kts 152°
2026-05-06 11:20 48.30249 -4.11320 7229 ft 242 kts 152°
2026-05-06 11:20 48.28762 -4.10163 6927 ft 239 kts 152°
2026-05-06 11:21 48.27307 -4.09034 6615 ft 238 kts 152°
2026-05-06 11:21 48.25825 -4.07884 6316 ft 236 kts 152°
2026-05-06 11:21 48.24370 -4.06757 5988 ft 235 kts 153°
2026-05-06 11:21 48.22920 -4.05636 5655 ft 234 kts 153°
2026-05-06 11:22 48.21477 -4.04518 5316 ft 233 kts 153°
2026-05-06 11:22 48.20038 -4.03401 4990 ft 233 kts 153°
2026-05-06 11:22 48.18597 -4.02289 4676 ft 233 kts 153°
2026-05-06 11:22 48.17176 -4.01190 4364 ft 233 kts 153°
2026-05-06 11:23 48.15736 -4.00079 4066 ft 233 kts 153°
2026-05-06 11:23 48.14301 -3.98970 3779 ft 232 kts 153°
2026-05-06 11:23 48.12869 -3.97863 3495 ft 232 kts 153°
2026-05-06 11:23 48.11433 -3.96756 3229 ft 232 kts 153°
2026-05-06 11:24 48.10000 -3.95650 3001 ft 230 kts 153°
2026-05-06 11:24 48.08580 -3.94554 2957 ft 229 kts 153°
2026-05-06 11:24 48.07156 -3.93459 2964 ft 231 kts 153°
2026-05-06 11:24 48.05722 -3.92358 2976 ft 231 kts 153°
2026-05-06 11:25 48.04295 -3.91262 2990 ft 232 kts 153°
2026-05-06 11:25 48.02858 -3.90158 2996 ft 233 kts 153°
2026-05-06 11:25 48.01420 -3.89053 2988 ft 233 kts 153°
2026-05-06 11:25 47.99964 -3.87992 2989 ft 232 kts 160°
2026-05-06 11:26 47.98388 -3.87766 2988 ft 229 kts 195°
2026-05-06 11:26 47.97030 -3.88886 2994 ft 225 kts 228°
2026-05-06 11:26 47.96305 -3.90916 2998 ft 222 kts 261°
2026-05-06 11:26 47.96296 -3.93093 2982 ft 200 kts 278°
2026-05-06 11:27 47.96462 -3.95147 2992 ft 199 kts 278°
2026-05-06 11:27 47.96597 -3.97174 2779 ft 200 kts 276°
2026-05-06 11:27 47.96704 -3.99248 2481 ft 193 kts 275°
2026-05-06 11:27 47.96791 -4.01158 2260 ft 177 kts 276°
2026-05-06 11:28 47.96871 -4.02912 1993 ft 162 kts 277°
2026-05-06 11:28 47.96943 -4.04528 1747 ft 150 kts 277°
2026-05-06 11:28 47.97014 -4.06023 1551 ft 135 kts 278°
2026-05-06 11:28 47.97065 -4.07401 1382 ft 131 kts 277°
2026-05-06 11:29 47.97130 -4.08740 1206 ft 131 kts 278°
2026-05-06 11:29 47.97187 -4.10155 1033 ft 135 kts 277°
2026-05-06 11:29 47.97254 -4.11521 850 ft 135 kts 277°
2026-05-06 11:29 47.97305 -4.12951 657 ft 137 kts 278°
2026-05-06 11:30 47.97389 -4.14322 507 ft 134 kts 276°
2026-05-06 11:30 47.97449 -4.15726 357 ft 137 kts 277°
2026-05-06 11:30 47.97508 -4.17004 310 ft 77 kts 272°
2026-05-06 11:30 47.97492 -4.17270 307 ft 13 kts 233°
2026-05-06 11:31 47.97437 -4.17309 307 ft 0 kts 184°
2026-05-06 11:31 47.97435 -4.17309 306 ft 2 kts 182°
2026-05-06 11:32 47.97415 -4.17310 306 ft 4 kts 180°
2026-05-06 11:32 47.97376 -4.17313 309 ft 7 kts 184°
2026-05-06 11:32 47.97319 -4.17318 307 ft 9 kts 183°
2026-05-06 11:32 47.97248 -4.17335 307 ft 12 kts 223°
2026-05-06 11:33 47.97238 -4.17373 307 ft 1 kts 283°
2026-05-06 11:33 47.97248 -4.17378 307 ft 0 kts